Date,TemperatureHighF,TemperatureAvgF,TemperatureLowF,DewpointHighF,DewpointAvgF,DewpointLowF,HumidityHigh,HumidityAvg,HumidityLow,PressureMaxIn,PressureMinIn,WindSpeedMaxMPH,WindSpeedAvgMPH,GustSpeedMaxMPH,PrecipitationSumIn
2013-1-1,57.7,42.5,33.1,39.1,31.2,26.9,85,67,35,30.22,30.15,11,3,11,0.00
2013-1-2,54.1,42.0,31.6,34.9,30.4,24.9,76,64,46,30.22,30.11,14,4,14,0.00
2013-1-3,55.8,42.8,30.0,37.4,32.2,23.9,78,67,49,30.26,30.13,11,2,11,0.00
2013-1-4,55.8,43.3,33.1,39.0,33.4,26.7,80,69,51,30.27,29.73,8,2,8,4.09
2013-1-5,50.2,44.8,35.2,41.4,37.8,28.0,82,76,67,30.22,30.05,12,5,12,0.18
2013-1-6,55.8,47.8,40.1,43.3,39.8,35.3,83,74,58,30.17,30.04,11,3,11,0.01
2013-1-7,61.3,48.8,37.2,46.9,40.1,31.6,85,73,57,30.24,30.13,11,3,11,0.00
2013-1-8,59.9,47.7,38.3,46.4,39.8,34.2,85,74,59,30.23,30.11,11,3,11,0.00
2013-1-9,59.9,48.1,39.4,46.2,38.8,31.6,79,70,59,30.20,29.97,22,6,22,0.00
2013-1-10,52.5,44.0,33.4,35.1,30.6,26.7,78,60,40,30.18,30.05,18,7,18,0.00
2013-1-11,52.5,44.0,36.7,38.9,33.5,26.2,77,67,53,30.23,30.10,19,5,19,0.00
2013-1-12,52.0,42.0,30.0,34.4,28.7,23.3,78,60,41,30.24,30.12,8,2,8,0.00
2013-1-13,51.3,40.7,26.6,33.1,26.8,13.6,77,59,27,30.26,30.16,24,3,24,0.00
2013-1-14,54.3,43.8,30.0,30.6,23.1,11.0,71,46,25,30.39,30.20,10,3,10,0.00
2013-1-15,52.7,39.3,30.4,32.8,28.0,23.4,76,65,44,30.47,30.37,10,2,10,0.00
2013-1-16,58.5,43.7,30.2,37.8,31.5,23.9,77,63,44,30.42,30.25,10,2,10,0.00
2013-1-17,60.3,42.9,29.5,39.2,31.6,23.7,79,66,43,30.26,30.13,11,2,11,0.00
2013-1-18,61.0,47.0,30.9,39.6,33.5,24.2,77,61,43,30.22,30.11,14,4,14,0.00
2013-1-19,61.5,45.0,30.0,38.7,32.2,23.7,78,62,42,30.23,30.14,14,4,14,0.00
2013-1-20,61.7,44.1,30.6,37.0,30.7,23.9,77,62,35,30.21,30.11,13,3,13,0.00
2013-1-21,62.1,48.8,30.0,42.2,35.0,23.2,81,60,40,30.17,30.07,14,6,14,0.00
2013-1-22,61.0,49.0,34.3,40.8,36.0,26.9,79,62,44,30.10,29.96,15,6,15,0.00
2013-1-23,52.7,50.3,48.7,43.9,41.9,38.5,81,73,62,30.08,29.93,17,4,17,0.26
2013-1-24,59.2,53.0,48.6,48.9,45.7,43.0,82,76,68,30.15,30.04,9,4,9,0.00
2013-1-25,64.0,54.9,49.5,51.2,46.9,43.7,83,75,62,30.17,30.01,11,3,11,0.00
2013-1-26,57.6,51.3,43.2,46.3,40.5,34.6,82,67,51,30.06,29.95,26,9,26,0.00
2013-1-27,43.0,43.0,43.0,34.6,34.6,34.6,72,72,72,30.05,30.05,9,6,9,0.00
2013-1-28,59.7,48.7,39.4,42.0,36.9,31.1,74,64,42,30.27,30.13,17,6,17,0.00
2013-1-29,60.3,50.4,41.9,43.4,39.0,34.2,74,65,49,30.33,30.24,15,6,15,0.00
2013-1-30,67.1,53.1,37.9,44.7,39.9,32.0,79,62,44,30.31,30.24,8,2,8,0.00
2013-1-31,64.9,46.9,36.0,45.4,37.2,29.1,81,70,47,30.29,30.16,10,2,10,0.00
2013-2-1,66.7,49.8,35.2,45.4,37.9,28.5,82,65,45,30.19,30.09,14,3,14,0.00
2013-2-2,59.9,50.1,41.9,47.0,41.7,35.6,82,73,62,30.29,30.19,14,4,14,0.00
2013-2-3,59.7,48.8,40.6,45.8,40.1,34.6,80,72,59,30.23,30.13,10,3,10,0.00
2013-2-4,55.9,47.5,41.4,46.1,40.8,35.4,83,77,69,30.15,30.06,14,4,14,0.00
2013-2-5,57.7,50.1,44.2,45.6,41.3,37.5,77,72,63,30.14,30.03,21,7,21,0.00
2013-2-6,58.6,48.1,36.7,42.7,37.9,29.8,81,68,47,30.17,30.10,17,5,17,0.00
2013-2-7,55.4,47.6,39.2,42.6,37.1,32.3,80,68,44,30.15,29.99,16,5,16,0.08
2013-2-8,56.5,46.3,36.9,39.1,35.1,30.3,82,66,45,30.01,29.92,16,6,16,0.00
2013-2-9,60.8,49.9,36.1,37.0,31.0,26.2,72,50,30,30.07,29.98,14,4,14,0.00
2013-2-10,62.2,45.2,31.5,43.7,32.8,23.7,75,63,39,30.10,30.00,12,3,12,0.00
2013-2-11,67.8,52.1,35.1,43.3,35.2,27.6,79,56,25,30.21,30.06,17,4,17,0.00
2013-2-12,62.4,47.5,37.4,47.2,40.1,33.9,88,77,43,30.36,30.22,10,3,10,0.00
2013-2-13,64.8,51.0,38.8,46.9,41.6,35.6,88,72,45,30.32,30.19,12,4,12,0.00
2013-2-14,70.5,51.5,37.8,49.7,41.3,34.5,88,70,42,30.23,30.14,8,2,8,0.00
2013-2-15,70.9,53.1,37.8,46.1,40.0,32.8,84,64,36,30.25,30.19,13,3,13,0.00
2013-2-16,70.9,54.6,39.9,49.6,42.4,34.9,82,66,40,30.22,30.03,12,3,12,0.00
2013-2-17,63.7,48.5,36.5,45.7,39.0,31.2,86,71,50,30.04,29.96,11,3,11,0.00
2013-2-18,56.7,45.1,35.6,42.8,36.7,29.4,85,73,58,30.02,29.92,19,6,19,0.00
2013-2-19,51.1,45.0,37.4,41.0,35.9,30.2,82,71,52,29.94,29.71,24,7,24,0.14
2013-2-20,58.8,43.2,34.7,38.7,31.9,27.1,76,65,46,29.98,29.85,15,7,15,0.00
2013-2-21,60.8,48.9,39.7,40.4,36.4,32.1,76,63,37,30.16,30.02,14,6,14,0.00
2013-2-22,64.2,48.8,35.6,43.7,37.9,28.5,81,67,34,30.24,30.15,15,5,15,0.00
2013-2-23,59.7,52.2,43.3,43.4,37.3,29.8,81,58,33,30.25,30.15,22,9,22,0.00
2013-2-24,65.8,50.7,41.0,37.6,33.3,28.9,74,54,26,30.25,30.14,15,5,15,0.00
2013-2-25,66.0,48.7,36.5,45.9,37.5,29.5,82,67,44,30.25,30.15,14,4,14,0.00
2013-2-26,67.8,48.5,33.6,39.4,34.9,26.7,79,62,29,30.21,30.13,17,4,17,0.00
2013-2-27,68.7,53.2,36.1,43.3,38.4,29.2,82,60,28,30.35,30.20,13,4,13,0.00
2013-2-28,65.8,55.0,47.7,51.2,45.5,41.3,80,71,59,30.43,30.34,14,4,14,0.00
2013-3-1,74.3,54.4,42.3,53.2,44.1,37.5,85,70,45,30.42,30.23,11,3,11,0.00
2013-3-2,71.4,58.0,45.3,52.7,46.2,38.9,80,66,49,30.24,30.06,12,4,12,0.00
2013-3-3,64.8,53.9,49.5,47.9,44.4,41.7,78,71,51,30.08,30.02,16,6,16,0.00
2013-3-4,59.2,49.1,42.8,46.3,40.9,35.4,83,74,62,30.13,30.04,17,4,17,0.00
2013-3-5,58.1,49.3,39.7,43.6,40.1,34.1,81,71,58,30.06,29.79,27,7,27,0.13
2013-3-6,57.2,50.2,41.0,44.0,39.8,34.0,77,68,50,30.05,29.81,23,6,23,0.18
2013-3-7,57.0,45.5,37.9,43.6,37.5,32.9,84,74,50,29.99,29.84,11,3,11,0.00
2013-3-8,59.7,50.0,42.4,44.1,39.5,34.7,75,68,53,30.03,29.83,24,8,24,0.00
2013-3-9,66.6,54.3,39.2,46.3,40.6,32.6,78,61,41,30.29,30.03,18,6,18,0.00
2013-3-10,69.8,53.0,39.2,47.9,40.1,33.0,81,64,27,30.33,30.23,14,4,14,0.00
2013-3-11,72.1,55.6,41.2,50.2,43.6,37.0,86,66,38,30.25,30.09,14,4,14,0.00
2013-3-12,75.2,55.7,43.2,55.9,45.5,39.0,86,70,47,30.14,30.05,14,4,14,0.00
2013-3-13,79.2,60.6,42.3,56.2,47.6,38.4,86,65,37,30.15,30.05,13,4,13,0.00
2013-3-14,68.7,54.1,45.9,52.3,44.7,40.3,86,71,49,30.15,30.07,13,5,13,0.00
2013-3-15,72.5,57.2,43.7,53.0,45.3,37.3,81,66,44,30.12,30.01,18,5,18,0.00
2013-3-16,70.2,55.2,42.1,49.5,43.6,37.0,83,67,43,30.09,30.01,17,5,17,0.00
2013-3-17,68.5,54.8,46.4,46.9,41.0,38.2,73,61,39,30.12,30.03,13,6,13,0.00
2013-3-18,69.4,53.0,40.3,49.9,41.1,34.3,79,65,45,30.11,30.01,11,4,11,0.00
2013-3-19,63.7,53.5,45.3,46.4,42.1,38.3,77,66,48,30.11,30.03,11,3,11,0.05
2013-3-20,59.0,52.9,48.0,51.4,46.0,40.6,81,78,70,30.13,30.03,10,3,10,0.28
2013-3-21,63.3,51.7,40.5,46.0,40.9,35.4,83,68,49,30.11,30.01,14,6,14,0.01
2013-3-22,66.0,53.5,43.0,41.2,37.3,32.6,70,56,31,30.11,30.03,14,6,14,0.00
2013-3-23,69.3,54.5,37.0,45.2,38.0,29.2,78,56,29,30.14,30.04,17,4,17,0.00
2013-3-24,47.3,47.0,46.9,38.9,38.8,38.7,73,73,73,30.07,30.07,4,2,4,0.00
2013-3-25,57.6,49.2,39.9,44.0,40.0,34.4,81,71,59,30.02,29.93,17,6,17,0.00
2013-3-26,64.2,52.9,43.5,47.7,42.4,37.4,81,68,52,29.99,29.93,16,6,16,0.00
2013-3-27,64.8,55.9,46.8,50.5,45.8,39.9,78,69,58,30.01,29.92,14,4,14,0.00
2013-3-28,66.0,58.1,51.1,52.3,47.9,44.0,78,69,59,30.08,29.99,11,4,11,0.00
2013-3-29,78.3,62.1,49.8,55.2,49.5,44.7,84,65,39,30.07,30.00,14,6,14,0.00
2013-3-30,55.2,55.0,54.9,47.1,46.7,46.4,74,74,73,30.04,30.03,10,5,10,0.00
2013-3-31,68.9,58.9,52.2,53.3,49.8,46.8,83,73,53,30.04,29.97,12,4,12,0.24
2013-4-1,63.9,57.1,51.3,52.9,49.1,44.0,84,75,62,30.15,30.03,14,4,14,0.18
2013-4-2,66.4,54.2,47.7,53.0,46.8,42.3,85,77,61,30.17,30.10,13,4,13,0.00
2013-4-3,75.9,57.0,46.6,55.8,46.9,42.0,85,71,42,30.13,29.98,14,5,14,0.00
2013-4-4,50.2,50.2,50.2,44.3,44.3,44.3,80,80,80,30.01,30.01,4,3,5,0.00
2013-4-5,65.5,59.2,54.1,51.9,49.0,46.0,81,69,57,30.18,30.10,17,6,17,0.02
2013-4-6,67.8,58.9,53.8,53.9,48.8,45.3,78,70,58,30.18,30.13,16,7,16,0.00
2013-4-7,64.6,56.3,50.9,50.7,46.3,42.7,80,69,58,30.18,29.81,30,8,30,0.22
2013-4-8,69.8,57.0,46.4,45.6,39.7,32.1,75,54,26,30.03,29.80,23,11,23,0.00
2013-4-9,75.2,62.4,47.3,48.4,43.0,37.8,70,51,31,30.10,30.02,16,7,16,0.00
2013-4-10,81.0,68.6,50.5,56.4,49.4,40.7,70,51,41,30.16,30.05,16,6,16,0.00
2013-4-11,74.1,59.4,49.3,51.4,45.2,41.3,76,60,40,30.05,29.83,20,7,20,0.00
2013-4-12,72.5,54.7,43.0,53.7,43.4,36.1,78,66,49,29.91,29.84,11,3,11,0.00
2013-4-13,66.4,54.7,44.2,48.7,42.1,37.0,76,63,49,29.88,29.79,17,7,17,0.00
2013-4-14,67.3,53.8,45.0,43.7,39.2,34.7,73,59,37,29.91,29.84,30,11,30,0.00
2013-4-15,60.4,51.6,42.6,41.2,38.2,34.2,79,61,39,29.95,29.84,34,13,34,0.00
2013-4-16,67.3,54.5,42.3,42.2,37.0,28.3,70,54,24,30.16,29.96,20,7,20,0.00
2013-4-17,71.2,60.9,44.8,42.7,36.2,23.3,66,43,17,30.26,30.17,21,7,21,0.00
2013-4-18,77.2,59.9,44.8,45.9,40.8,35.8,72,52,25,30.25,30.17,15,5,15,0.00
2013-4-19,78.3,61.8,44.6,55.8,46.6,37.2,76,59,38,30.22,30.11,15,4,15,0.00
2013-4-20,77.9,64.5,50.7,51.5,45.2,39.9,68,51,34,30.09,29.98,15,6,15,0.00
2013-4-21,83.3,67.5,45.3,55.6,47.1,38.2,76,51,27,30.02,29.91,14,5,14,0.00
2013-4-22,89.4,70.7,49.6,55.0,48.5,41.7,74,48,24,29.95,29.85,18,4,18,0.00
2013-4-23,84.7,63.8,48.9,48.5,39.3,25.6,78,45,15,29.91,29.83,18,6,18,0.00
2013-4-24,64.9,55.9,46.6,49.9,45.3,40.7,81,68,57,29.95,29.82,20,8,20,0.00
2013-4-25,63.1,55.8,51.8,49.1,45.4,43.1,74,68,59,30.12,29.94,15,7,15,0.00
2013-4-26,64.9,55.4,50.2,50.6,45.5,42.7,77,70,58,30.21,30.11,17,9,17,0.00
2013-4-27,71.4,54.3,47.8,54.4,45.5,41.8,84,73,54,30.21,30.06,17,6,17,0.00
2013-4-28,48.4,48.2,48.2,41.7,41.7,41.7,78,78,78,30.06,30.06,2,0,2,0.00
2013-4-29,86.9,69.7,52.3,58.5,50.2,43.6,73,52,30,29.88,29.76,14,6,14,0.00
2013-4-30,81.0,68.7,52.2,49.7,43.3,22.1,68,43,15,29.84,29.76,15,7,15,0.00
2013-5-1,89.1,73.4,55.0,46.2,33.9,21.8,52,25,14,30.07,29.83,17,6,17,0.00
2013-5-2,92.5,71.0,48.0,46.8,36.0,24.7,70,33,14,30.12,30.06,17,5,17,0.00
2013-5-3,91.9,69.2,48.6,54.8,41.6,34.3,67,39,19,30.06,29.79,17,5,17,0.00
2013-5-4,89.1,69.2,49.5,56.0,47.8,40.9,73,50,23,29.78,29.55,18,6,18,0.00
2013-5-5,62.2,58.1,54.3,47.7,46.4,45.5,72,65,58,29.71,29.60,17,6,17,0.00
2013-5-6,74.7,62.6,53.1,51.9,48.6,45.2,75,61,43,29.95,29.79,11,4,11,0.00
2013-5-7,74.8,61.2,53.8,54.2,49.5,46.4,77,66,43,30.03,29.94,17,7,17,0.00
2013-5-8,63.5,56.4,52.3,50.3,47.0,44.6,80,71,61,30.12,30.03,17,7,17,0.00
2013-5-9,64.6,56.8,52.0,50.3,46.7,44.3,76,69,59,30.16,30.09,21,9,21,0.00
2013-5-10,74.1,57.9,50.9,56.4,48.1,45.0,82,70,52,30.17,30.10,18,6,18,0.00
2013-5-11,82.8,62.6,49.3,60.4,50.2,44.1,85,66,46,30.14,30.04,16,6,16,0.00
2013-5-12,51.8,51.6,51.6,45.0,45.0,44.8,78,78,77,30.11,30.10,4,3,4,0.00
2013-5-13,79.2,64.2,47.3,57.3,50.0,42.7,86,62,46,30.07,29.93,15,6,16,0.00
2013-5-14,78.1,63.3,50.9,53.1,47.0,42.5,75,57,34,29.96,29.89,16,5,16,0.00
2013-5-15,70.7,59.5,46.9,49.6,45.6,39.8,76,61,42,30.01,29.95,21,8,21,0.00
2013-5-16,69.8,59.6,52.7,53.1,48.2,44.6,75,66,50,30.00,29.95,23,10,23,0.00
2013-5-17,67.3,57.4,47.3,49.2,44.7,41.1,79,64,46,30.05,29.94,21,7,21,0.00
2013-5-18,69.6,54.3,45.1,48.9,43.7,38.4,79,68,47,30.11,30.04,11,4,11,0.00
2013-5-19,82.2,68.9,52.2,51.3,45.5,37.9,68,46,23,30.10,29.97,17,7,17,0.00
2013-5-20,88.0,68.7,51.1,52.8,45.9,40.6,73,48,22,29.98,29.91,21,7,21,0.00
2013-5-21,70.5,59.9,50.2,49.4,44.2,38.9,73,57,42,29.97,29.88,32,13,32,0.00
2013-5-22,66.2,56.7,45.7,42.7,36.8,26.4,69,49,24,30.01,29.88,24,10,24,0.00
2013-5-23,69.8,57.7,44.4,44.9,41.3,36.5,74,56,33,29.99,29.89,15,7,15,0.00
2013-5-24,73.8,59.8,45.7,46.3,42.7,37.5,74,55,34,29.98,29.92,18,6,18,0.00
2013-5-25,72.0,57.1,44.8,47.1,43.5,37.3,76,62,40,30.01,29.93,17,6,17,0.00
2013-5-26,70.3,59.6,52.3,52.2,48.2,44.3,82,67,52,30.10,30.00,21,10,21,0.00
2013-5-27,64.0,57.8,51.1,53.3,49.1,43.8,83,73,63,30.09,29.97,14,6,14,0.09
2013-5-28,70.0,61.4,56.1,54.7,51.3,46.3,85,71,52,29.98,29.90,21,8,21,0.05
2013-5-29,72.5,62.6,54.1,53.6,49.2,44.2,76,62,49,29.95,29.88,24,10,24,0.00
2013-5-30,76.3,62.2,47.8,49.7,45.6,41.0,77,56,38,29.97,29.91,15,6,15,0.00
2013-5-31,86.2,67.1,49.5,53.1,46.4,41.1,74,50,25,29.99,29.90,15,6,15,0.00
2013-6-1,90.1,70.8,52.5,55.8,48.5,42.4,69,48,28,29.92,29.76,11,5,11,0.00
2013-6-2,83.1,67.6,53.1,54.9,49.5,43.7,72,54,36,29.77,29.64,11,5,11,0.00
2013-6-3,73.9,61.6,51.6,53.6,48.8,44.1,76,64,47,29.86,29.69,16,7,16,0.00
2013-6-4,69.3,61.0,54.1,52.5,49.3,46.7,77,66,54,29.97,29.85,17,9,17,0.00
2013-6-5,71.8,59.2,53.2,53.7,48.8,46.2,80,69,52,29.99,29.91,17,9,17,0.00
2013-6-6,75.2,61.6,52.0,55.7,50.1,46.4,83,67,50,29.94,29.85,18,8,18,0.00
2013-6-7,88.5,70.8,52.7,60.8,53.2,46.6,82,56,33,29.87,29.70,13,5,14,0.00
2013-6-8,91.6,72.5,56.5,63.2,54.6,47.5,74,55,37,29.80,29.70,17,7,17,0.00
2013-6-14,87.3,68.2,54.1,51.3,46.2,42.1,71,49,22,29.98,29.81,14,5,14,0.00
2013-6-15,80.6,61.6,48.9,56.2,47.8,42.0,78,62,40,29.97,29.81,18,5,18,0.00
2013-6-16,78.4,63.5,50.0,53.7,48.0,43.1,78,59,41,30.06,29.96,18,6,18,0.00
2013-6-17,73.2,62.1,52.9,54.6,49.7,44.8,79,65,51,30.06,29.99,28,10,28,0.00
2013-6-18,68.5,60.2,53.4,51.2,48.8,46.0,80,67,49,30.00,29.93,25,12,25,0.00
2013-6-19,75.0,62.3,50.9,50.5,46.8,43.4,77,59,39,30.03,29.98,18,8,18,0.00
2013-6-20,77.0,64.8,52.3,48.8,46.3,43.2,72,53,34,29.99,29.92,21,8,21,0.00
2013-6-21,80.6,65.6,49.5,51.2,46.9,42.4,77,54,30,29.95,29.89,14,5,14,0.00
2013-6-22,87.1,68.0,51.8,53.3,48.3,42.7,72,52,27,29.91,29.81,15,6,15,0.00
2013-6-23,68.9,62.1,55.9,57.5,53.6,49.3,83,74,65,29.85,29.80,14,7,14,0.00
2013-6-24,65.8,61.1,57.4,56.2,53.4,51.1,83,76,69,29.88,29.78,9,3,9,0.14
2013-6-25,69.1,64.9,59.9,61.1,58.4,54.7,85,80,72,29.96,29.85,9,3,9,0.33
2013-6-26,81.0,70.8,61.7,63.3,59.2,55.1,86,68,50,30.04,29.95,15,6,15,0.01
2013-6-27,84.9,73.0,57.2,61.5,56.8,52.7,86,59,41,30.07,30.00,20,7,21,0.00
2013-6-28,95.4,74.1,59.4,65.0,58.1,51.8,77,60,36,30.02,29.94,13,4,13,0.00
2013-6-29,99.0,79.1,60.3,62.8,55.8,49.8,69,47,28,29.91,29.78,14,5,14,0.00
2013-6-30,90.9,73.4,58.5,61.1,54.5,49.6,73,54,33,29.82,29.74,12,5,12,0.00
2013-7-1,97.3,73.7,57.6,64.4,55.3,49.7,75,56,29,29.83,29.78,14,4,14,0.00
2013-7-2,95.0,73.9,60.8,65.8,56.5,51.8,76,57,32,29.90,29.80,20,6,20,0.00
2013-7-3,90.9,73.4,58.1,64.0,57.5,52.7,84,60,41,29.91,29.75,17,8,17,0.00
2013-7-4,85.8,80.2,61.3,62.1,60.0,52.2,72,51,45,29.78,29.71,11,6,11,0.00
2013-7-5,85.8,85.8,85.8,62.1,62.1,47.1,45,45,45,29.74,29.68,7,7,8,0.00
2013-7-6,82.2,65.2,54.5,57.5,51.7,47.3,78,63,43,29.78,29.72,12,5,12,0.00
2013-7-7,81.3,62.8,53.8,56.4,51.3,47.9,81,68,42,29.85,29.77,14,6,14,0.00
2013-7-8,83.5,64.4,55.4,59.9,51.9,48.1,81,66,43,29.97,29.85,13,6,13,0.00
2013-7-9,89.1,68.3,51.3,57.1,51.9,47.2,86,60,33,30.02,29.93,15,7,15,0.00
2013-7-10,79.5,63.2,52.7,56.7,51.2,47.1,85,67,44,29.98,29.89,18,8,18,0.00
2013-7-11,75.9,62.2,52.0,55.1,50.4,46.8,83,67,47,29.93,29.85,14,7,14,0.00
2013-7-12,79.7,62.3,54.7,56.5,50.3,46.9,79,66,45,29.93,29.85,17,5,17,0.00
2013-7-13,83.3,64.0,49.5,58.1,50.4,44.2,83,64,39,29.94,29.88,13,5,13,0.00
2013-7-14,80.1,61.8,53.4,56.2,50.4,47.4,82,68,43,29.98,29.89,15,6,15,0.00
2013-7-15,72.0,58.5,51.3,54.8,49.6,46.6,84,73,52,29.92,29.83,17,7,17,0.00
2013-7-16,69.6,60.6,55.4,54.7,50.9,48.7,79,71,59,30.01,29.85,14,6,14,0.00
2013-7-17,76.3,62.9,55.2,57.9,52.6,49.2,82,70,50,30.07,30.00,15,6,15,0.00
2013-7-18,79.3,64.0,53.6,57.3,52.0,48.7,84,67,45,30.05,29.93,17,6,17,0.00
2013-7-19,55.8,55.8,55.8,49.0,49.0,48.8,78,78,78,29.94,29.94,2,2,2,0.00
2013-7-20,85.1,64.8,53.1,60.7,51.9,47.4,82,65,42,29.83,29.72,12,5,12,0.00
2013-7-21,85.6,64.4,54.1,59.4,51.5,48.0,81,65,39,29.88,29.75,14,6,14,0.00
2013-7-22,85.5,66.9,54.5,60.4,53.7,48.1,80,65,39,29.96,29.88,13,6,13,0.00
2013-7-23,78.6,66.9,58.8,59.0,54.6,51.8,79,66,50,29.98,29.92,13,6,13,0.00
2013-7-24,82.2,65.8,55.4,57.1,53.0,49.0,85,66,38,29.98,29.90,16,8,16,0.00
2013-7-25,77.2,65.6,53.6,55.8,52.4,48.6,84,65,46,29.98,29.91,17,8,17,0.00
2013-8-10,75.2,62.7,56.3,56.9,53.1,50.4,83,72,51,30.03,29.97,17,8,17,0.00
2013-8-11,78.1,62.8,55.0,58.6,53.0,50.2,85,72,48,30.01,29.93,15,6,15,0.00
2013-8-12,83.3,63.4,55.2,59.7,52.3,49.5,84,69,42,29.98,29.91,14,5,14,0.00
2013-8-13,87.4,66.6,54.1,58.9,52.6,48.8,85,64,36,29.98,29.89,14,4,14,0.00
2013-8-14,86.2,67.2,52.0,57.7,52.4,45.5,81,62,32,29.95,29.87,17,5,17,0.00
2013-8-15,82.0,69.0,58.1,62.8,58.2,52.8,86,70,48,29.93,29.88,18,6,18,0.00
2013-8-16,77.9,61.5,59.4,63.2,56.5,55.3,89,84,61,29.97,29.92,5,3,5,0.00
2013-9-15,77.4,64.1,54.3,57.4,54.4,49.8,86,72,48,29.83,29.74,19,8,19,0.00
2013-9-16,82.6,65.8,54.3,59.1,54.3,50.5,88,69,42,29.87,29.76,14,5,14,0.00
2013-9-17,74.7,64.3,54.5,55.1,52.0,48.5,85,66,50,29.86,29.78,22,8,22,0.00
2013-9-18,84.0,67.0,54.5,52.8,47.6,43.9,73,52,26,29.89,29.79,18,5,18,0.00
2013-9-19,90.0,65.0,49.5,51.8,47.1,40.7,80,57,23,29.83,29.73,14,4,14,0.00
2013-9-20,75.6,62.7,48.7,59.7,53.1,43.5,84,72,56,29.81,29.74,21,5,21,0.00
2013-9-21,69.1,63.9,57.4,61.2,55.3,51.3,88,74,58,29.86,29.76,23,7,23,0.57
2013-9-26,76.3,62.1,51.1,46.1,42.0,35.5,67,50,25,29.96,29.82,16,6,16,0.00
2013-9-27,80.6,63.6,48.0,47.2,41.3,31.3,76,49,20,30.06,29.96,16,4,16,0.00
2013-9-28,82.9,61.6,47.3,54.9,46.7,38.8,82,63,22,30.06,29.99,17,5,17,0.00
2013-9-29,73.9,64.2,56.5,60.3,56.6,52.0,88,77,60,30.07,30.02,12,4,12,0.01
2013-9-30,75.2,65.6,55.6,62.6,57.3,43.2,90,76,54,30.03,29.95,13,5,13,0.07
2013-10-1,75.7,61.0,46.9,51.8,47.5,42.7,86,63,39,29.99,29.89,13,4,13,0.00
2013-10-2,74.5,63.6,50.7,49.9,46.0,42.1,80,54,37,29.99,29.90,17,7,17,0.00
2013-10-3,77.7,64.8,52.0,41.7,34.2,24.6,61,37,16,30.06,29.93,16,7,16,0.00
2013-10-4,83.7,73.1,56.7,34.0,29.0,23.7,35,20,14,30.05,29.97,20,6,20,0.00
2013-10-6,84.9,65.0,44.6,42.4,35.8,30.2,66,38,17,30.10,29.97,10,3,10,0.00
2013-10-7,84.4,63.6,48.4,46.2,39.0,30.8,67,44,16,29.97,29.84,12,4,12,0.00
2013-10-8,78.8,59.8,45.3,49.1,44.1,39.8,82,59,26,29.88,29.67,13,3,13,0.00
2013-10-9,71.4,59.9,49.1,45.8,42.8,40.6,78,56,34,29.73,29.59,12,5,12,0.00
2013-10-10,76.3,58.5,48.4,51.2,44.7,39.9,85,63,28,29.98,29.72,11,4,11,0.00
2013-10-11,68.7,53.5,47.7,50.6,46.8,45.0,94,80,49,30.07,29.96,15,5,15,0.00
2013-10-12,71.6,54.5,43.5,51.5,45.9,42.2,95,76,43,29.99,29.86,15,5,15,0.00
2013-10-13,75.2,59.3,46.8,50.3,44.4,38.3,89,62,27,30.04,29.90,15,4,15,0.00
2013-10-14,50.2,49.8,49.3,43.3,43.1,42.9,79,78,77,30.04,30.04,3,1,3,0.00
2013-10-18,78.8,56.8,46.4,51.6,46.1,42.4,96,72,32,30.02,29.95,10,4,10,0.00
2013-10-19,84.0,57.7,41.9,48.7,44.0,40.6,95,68,24,30.05,29.95,8,3,8,0.00
2013-10-20,77.4,55.0,46.0,51.7,47.0,44.7,96,78,39,29.99,29.88,14,5,14,0.00
2013-10-21,72.7,54.9,48.4,52.5,48.1,45.3,94,80,48,29.99,29.88,11,4,11,0.00
2013-10-22,75.6,54.6,46.4,53.4,48.0,45.0,96,81,45,30.00,29.90,10,4,10,0.00
2013-10-23,72.5,53.0,46.2,52.5,47.8,45.3,97,84,49,29.96,29.86,14,6,14,0.00
2013-10-24,63.1,53.7,47.8,49.3,47.0,45.1,95,79,59,30.08,29.94,14,6,14,0.00
2013-10-25,69.4,54.5,43.0,52.5,46.6,41.1,95,76,52,30.16,30.05,15,4,15,0.00
2013-10-26,80.8,58.6,41.7,51.9,45.5,38.9,92,67,26,30.13,30.00,11,4,11,0.00
2013-10-27,61.0,53.1,48.4,51.4,47.6,46.4,94,82,63,30.01,29.62,26,9,26,0.00
2013-10-28,65.3,55.5,44.6,47.1,44.7,41.0,89,69,48,29.79,29.62,14,4,14,0.00
2013-10-29,64.6,55.4,47.1,48.7,46.1,42.8,85,72,52,30.03,29.80,12,3,12,0.00
2013-10-30,68.7,53.6,43.5,49.6,44.8,40.3,94,74,47,30.14,30.02,13,3,13,0.00
2013-11-9,73.6,54.5,40.5,50.4,45.3,39.9,98,75,38,30.02,29.93,11,4,11,0.00
2013-11-10,69.1,53.6,43.0,52.8,46.7,41.1,96,79,51,30.09,29.99,11,3,11,0.00
2013-11-11,66.7,55.0,45.5,50.4,47.5,42.6,91,77,53,30.15,30.04,8,3,8,0.00
2013-11-12,70.9,59.4,51.8,50.9,48.4,46.4,86,68,45,30.25,30.11,8,3,8,0.00
2013-11-13,77.2,56.6,44.8,53.9,49.1,42.2,94,78,44,30.23,30.07,11,4,11,0.00
2013-11-14,65.1,54.2,48.9,54.1,48.5,42.4,96,82,63,30.09,29.85,11,4,11,0.00
2013-11-15,66.6,55.8,45.9,42.7,41.2,39.4,79,60,38,29.85,29.72,14,6,14,0.00
2013-11-16,67.1,53.2,40.8,49.8,44.4,37.4,89,74,44,29.90,29.73,21,5,21,0.00
2013-11-17,63.3,51.6,41.2,51.0,44.7,38.5,96,79,56,30.06,29.89,10,2,10,0.00
2013-11-18,59.0,49.6,39.0,48.4,43.4,36.2,91,80,64,30.13,30.04,9,3,9,0.00
2013-11-19,57.0,55.2,51.6,54.8,52.0,45.7,93,89,78,30.07,29.90,10,3,10,0.57
2013-11-20,59.4,55.2,51.4,57.1,52.4,48.0,94,90,86,29.90,29.81,11,3,11,0.25
2013-11-21,51.4,51.4,51.4,48.0,48.0,48.0,88,88,88,29.87,29.86,3,2,3,0.00
2013-11-22,74.7,66.3,52.3,28.3,22.0,15.0,24,19,15,30.00,29.85,30,7,30,0.00
2013-11-23,65.7,54.3,42.1,38.3,32.7,21.5,70,47,20,30.08,29.92,17,5,17,0.00
2013-11-24,64.0,50.1,35.6,44.4,37.0,28.8,83,63,36,30.22,30.07,11,3,12,0.00
2013-11-25,63.9,49.1,36.7,46.1,40.2,32.8,92,73,48,30.31,30.22,11,3,11,0.00
2013-11-26,64.4,49.7,39.2,44.5,40.2,36.2,90,72,43,30.25,30.01,11,3,11,0.00
2013-11-27,64.8,52.0,40.1,44.9,41.6,36.1,87,69,47,30.01,29.81,13,4,13,0.00
2013-11-28,70.3,51.9,41.4,46.0,41.4,38.1,89,70,37,30.03,29.83,10,2,10,0.00
2013-11-29,68.4,51.1,38.7,47.2,41.3,35.4,89,72,39,30.17,30.02,11,2,11,0.00
2013-11-30,69.1,51.5,41.9,47.8,43.0,38.6,89,75,44,30.24,30.14,7,2,7,0.00
2013-12-1,71.6,55.1,39.0,49.1,43.6,36.8,93,68,39,30.32,30.18,10,2,10,0.00
2013-12-2,64.9,51.1,38.7,53.5,46.0,37.3,96,84,59,30.20,29.93,21,5,21,0.00
2013-12-3,57.2,50.6,42.8,52.8,33.8,26.6,91,55,33,29.92,29.80,21,7,21,0.00
2013-12-4,53.6,42.7,30.9,32.8,27.1,21.3,80,57,28,30.07,29.92,10,3,10,0.00
2013-12-5,51.8,38.8,25.9,32.5,24.7,17.4,81,60,27,30.13,30.05,9,2,9,0.00
2013-12-6,49.6,38.9,26.8,46.5,31.8,20.6,90,76,51,30.17,29.87,18,4,18,0.40
2013-12-7,47.8,42.3,35.8,44.3,33.5,24.4,91,73,42,30.09,29.88,27,7,27,0.01
2013-12-8,47.1,35.2,27.7,31.6,24.8,20.3,83,67,44,30.29,30.16,10,2,10,0.00
2013-12-9,49.5,35.0,23.7,29.9,21.7,17.6,79,61,34,30.40,30.27,13,3,13,0.00
2013-12-10,52.2,37.5,25.3,31.9,25.6,18.8,81,64,35,30.38,30.17,11,2,11,0.00
2013-12-11,55.2,41.0,28.8,36.5,30.2,23.5,83,67,43,30.23,30.14,14,4,14,0.00
2013-12-12,58.3,42.2,29.7,38.5,31.6,24.8,85,68,39,30.25,30.13,10,2,10,0.00
2013-12-13,61.7,44.1,31.3,39.7,34.7,28.7,92,73,35,30.32,30.19,8,2,8,0.00
2013-12-14,59.2,43.7,32.0,42.2,35.6,28.3,89,75,47,30.38,30.27,13,3,13,0.00
2013-12-15,61.7,43.7,30.7,41.5,34.6,27.3,90,73,44,30.34,30.21,8,2,8,0.00
2013-12-16,63.7,46.6,34.9,41.9,35.8,30.1,87,68,41,30.22,30.09,17,3,17,0.00
2013-12-17,63.7,49.8,36.5,43.7,38.7,31.4,87,68,43,30.15,30.01,14,4,14,0.00
2013-12-18,58.1,49.4,38.1,46.6,42.5,34.6,89,77,62,30.01,29.73,14,5,14,0.00
2013-12-19,63.3,51.4,41.7,42.4,30.9,15.2,83,51,22,29.90,29.69,17,6,17,0.00
2013-12-20,65.7,48.7,33.8,38.1,28.0,15.7,75,48,20,29.98,29.89,11,3,12,0.00
2013-12-21,65.5,50.9,40.6,49.4,43.7,36.3,94,78,55,30.06,29.92,11,3,11,0.00
2013-12-22,43.0,42.3,41.9,38.8,38.4,37.8,86,86,85,30.07,30.05,4,1,4,0.00